TimeCDT,TemperatureF,Dew PointF,Humidity,Sea Level PressureIn,VisibilityMPH,Wind Direction,Wind SpeedMPH,Gust SpeedMPH,PrecipitationIn,Events,Conditions,WindDirDegrees,DateUTC
12:11 AM,30.2,28.4,93,29.76,4.0,Calm,Calm,-,N/A,,Clear,0,2013-04-29 05:11:00
12:31 AM,28.4,28.4,100,29.77,5.0,Calm,Calm,-,N/A,,Clear,0,2013-04-29 05:31:00
12:51 AM,28.4,26.6,93,29.78,5.0,Calm,Calm,-,N/A,,Clear,0,2013-04-29 05:51:00
1:11 AM,28.4,26.6,93,29.79,4.0,Calm,Calm,-,N/A,,Clear,0,2013-04-29 06:11:00
1:31 AM,26.6,26.6,100,29.79,5.0,Calm,Calm,-,N/A,,Clear,0,2013-04-29 06:31:00
1:51 AM,26.6,26.6,100,29.80,5.0,Calm,Calm,-,N/A,,Clear,0,2013-04-29 06:51:00
2:11 AM,26.6,24.8,93,29.80,7.0,Calm,Calm,-,N/A,,Clear,0,2013-04-29 07:11:00
2:31 AM,26.6,24.8,93,29.80,7.0,Calm,Calm,-,N/A,,Clear,0,2013-04-29 07:31:00
2:51 AM,26.6,24.8,93,29.80,7.0,Calm,Calm,-,N/A,,Clear,0,2013-04-29 07:51:00
3:11 AM,24.8,24.8,100,29.81,10.0,Calm,Calm,-,N/A,,Clear,0,2013-04-29 08:11:00
3:31 AM,24.8,24.8,100,29.81,10.0,Calm,Calm,-,N/A,,Clear,0,2013-04-29 08:31:00
3:51 AM,24.8,23.0,93,29.82,10.0,Calm,Calm,-,N/A,,Clear,0,2013-04-29 08:51:00
4:11 AM,24.8,23.0,93,29.83,10.0,Calm,Calm,-,N/A,,Clear,0,2013-04-29 09:11:00
4:31 AM,24.8,23.0,93,29.84,10.0,Calm,Calm,-,N/A,,Clear,0,2013-04-29 09:31:00
4:51 AM,23.0,21.2,93,29.84,10.0,Calm,Calm,-,N/A,,Clear,0,2013-04-29 09:51:00
5:11 AM,23.0,21.2,93,29.85,10.0,Calm,Calm,-,N/A,,Clear,0,2013-04-29 10:11:00
5:31 AM,23.0,21.2,93,29.85,10.0,Calm,Calm,-,N/A,,Clear,0,2013-04-29 10:31:00
5:51 AM,23.0,21.2,93,29.86,10.0,Calm,Calm,-,N/A,,Clear,0,2013-04-29 10:51:00
6:11 AM,23.0,21.2,93,29.86,10.0,Calm,Calm,-,N/A,,Clear,0,2013-04-29 11:11:00
6:31 AM,23.0,21.2,93,29.86,10.0,Calm,Calm,-,N/A,,Clear,0,2013-04-29 11:31:00
6:51 AM,24.8,21.2,86,29.86,10.0,Calm,Calm,-,N/A,,Clear,0,2013-04-29 11:51:00
7:11 AM,26.6,24.8,93,29.86,10.0,Calm,Calm,-,N/A,,Clear,0,2013-04-29 12:11:00
7:31 AM,28.4,26.6,93,29.86,10.0,Calm,Calm,-,N/A,,Clear,0,2013-04-29 12:31:00
7:51 AM,30.2,28.4,93,29.86,10.0,Calm,Calm,-,N/A,,Clear,0,2013-04-29 12:51:00
8:11 AM,33.8,32.0,93,29.86,10.0,Calm,Calm,-,N/A,,Clear,0,2013-04-29 13:11:00
8:31 AM,37.4,35.6,93,29.86,10.0,Calm,Calm,-,N/A,,Clear,0,2013-04-29 13:31:00
8:51 AM,41.0,39.2,93,29.85,10.0,Calm,Calm,-,N/A,,Clear,0,2013-04-29 13:51:00
9:11 AM,44.6,42.8,93,29.84,10.0,Calm,Calm,-,N/A,,Clear,0,2013-04-29 14:11:00
9:31 AM,46.4,44.6,93,29.84,10.0,Calm,Calm,-,N/A,,Clear,0,2013-04-29 14:31:00
9:51 AM,48.2,46.4,93,29.84,10.0,Calm,Calm,-,N/A,,Clear,0,2013-04-29 14:51:00
10:11 AM,48.2,48.2,100,29.82,10.0,Calm,Calm,-,N/A,,Clear,0,2013-04-29 15:11:00
10:31 AM,50.0,48.2,94,29.81,10.0,NW,3.5,-,N/A,,Clear,310,2013-04-29 15:31:00
10:51 AM,51.8,50.0,94,29.79,10.0,Calm,Calm,-,N/A,,Clear,0,2013-04-29 15:51:00
11:11 AM,53.6,51.8,94,29.78,10.0,Calm,Calm,-,N/A,,Clear,0,2013-04-29 16:11:00
11:31 AM,53.6,44.6,72,29.78,10.0,SW,3.5,-,N/A,,Clear,220,2013-04-29 16:31:00
11:51 AM,55.4,41.0,58,29.78,10.0,SSW,4.6,-,N/A,,Clear,210,2013-04-29 16:51:00
12:11 PM,57.2,48.2,72,29.78,10.0,Calm,Calm,-,N/A,,Clear,0,2013-04-29 17:11:00
12:31 PM,57.2,35.6,44,29.77,10.0,South,5.8,-,N/A,,Clear,190,2013-04-29 17:31:00
12:51 PM,57.2,33.8,41,29.77,10.0,Calm,Calm,-,N/A,,Clear,0,2013-04-29 17:51:00
1:11 PM,59.0,30.2,34,29.77,10.0,SW,3.5,-,N/A,,Clear,220,2013-04-29 18:11:00
1:31 PM,60.8,28.4,29,29.75,10.0,South,5.8,-,N/A,,Clear,190,2013-04-29 18:31:00
1:51 PM,60.8,26.6,27,29.75,10.0,SSE,3.5,-,N/A,,Clear,150,2013-04-29 18:51:00
2:11 PM,60.8,30.2,31,29.74,10.0,South,6.9,-,N/A,,Clear,170,2013-04-29 19:11:00
2:31 PM,60.8,19.4,20,29.73,10.0,SSE,4.6,-,N/A,,Clear,160,2013-04-29 19:31:00
2:51 PM,60.8,19.4,20,29.71,10.0,SSE,3.5,-,N/A,,Clear,160,2013-04-29 19:51:00
3:11 PM,62.6,19.4,19,29.70,10.0,SSE,4.6,-,N/A,,Clear,160,2013-04-29 20:11:00
3:31 PM,62.6,17.6,18,29.69,10.0,South,4.6,-,N/A,,Clear,180,2013-04-29 20:31:00
3:51 PM,62.6,21.2,20,29.68,10.0,South,5.8,-,N/A,,Clear,190,2013-04-29 20:51:00
4:11 PM,62.6,21.2,20,29.67,10.0,East,3.5,-,N/A,,Clear,100,2013-04-29 21:11:00
4:31 PM,62.6,15.8,16,29.67,10.0,Calm,Calm,-,N/A,,Clear,0,2013-04-29 21:31:00
4:51 PM,62.6,15.8,16,29.67,10.0,South,4.6,-,N/A,,Clear,180,2013-04-29 21:51:00
5:11 PM,64.4,15.8,15,29.66,10.0,SSW,6.9,-,N/A,,Clear,210,2013-04-29 22:11:00
5:31 PM,62.6,15.8,16,29.65,10.0,South,3.5,-,N/A,,Clear,170,2013-04-29 22:31:00
5:51 PM,62.6,12.2,14,29.65,10.0,Calm,Calm,-,N/A,,Clear,0,2013-04-29 22:51:00
6:11 PM,64.4,14.0,14,29.64,10.0,Calm,Calm,-,N/A,,Clear,0,2013-04-29 23:11:00
6:31 PM,62.6,15.8,16,29.64,10.0,SSE,4.6,-,N/A,,Clear,160,2013-04-29 23:31:00
6:51 PM,62.6,15.8,16,29.64,10.0,Calm,Calm,-,N/A,,Clear,0,2013-04-29 23:51:00
7:11 PM,60.8,21.2,22,29.64,10.0,Calm,Calm,-,N/A,,Clear,0,2013-04-30 00:11:00
7:31 PM,53.6,21.2,28,29.65,10.0,Calm,Calm,-,N/A,,Clear,0,2013-04-30 00:31:00
7:51 PM,48.2,24.8,40,29.65,10.0,Calm,Calm,-,N/A,,Clear,0,2013-04-30 00:51:00
8:11 PM,48.2,24.8,40,29.65,10.0,Calm,Calm,-,N/A,,Clear,0,2013-04-30 01:11:00
8:31 PM,46.4,24.8,43,29.65,10.0,Calm,Calm,-,N/A,,Clear,0,2013-04-30 01:31:00
8:51 PM,42.8,24.8,49,29.65,10.0,Calm,Calm,-,N/A,,Clear,0,2013-04-30 01:51:00
9:11 PM,41.0,24.8,53,29.66,10.0,Calm,Calm,-,N/A,,Clear,0,2013-04-30 02:11:00
9:31 PM,39.2,24.8,56,29.66,10.0,Calm,Calm,-,N/A,,Clear,0,2013-04-30 02:31:00
9:51 PM,39.2,24.8,56,29.65,10.0,Calm,Calm,-,N/A,,Clear,0,2013-04-30 02:51:00
10:31 PM,37.4,24.8,60,29.65,10.0,Calm,Calm,-,N/A,,Clear,0,2013-04-30 03:31:00
10:51 PM,37.4,24.8,60,29.65,10.0,Calm,Calm,-,N/A,,Scattered Clouds,0,2013-04-30 03:51:00
11:11 PM,37.4,24.8,60,29.65,10.0,Calm,Calm,-,N/A,,Clear,0,2013-04-30 04:11:00
11:31 PM,37.4,24.8,60,29.65,10.0,Calm,Calm,-,N/A,,Clear,0,2013-04-30 04:31:00
11:51 PM,39.2,24.8,56,29.64,10.0,Calm,Calm,-,N/A,,Clear,0,2013-04-30 04:51:00